User: anonymous   Login
Location: Newark
(47.8285°N, 0.6972°W)
Time: 17:26:23
(UTC+00:00)
Language:

AO-73 - Orbit

View from above orbital plane
View from above orbital plane
View from above satellite
View from above satellite

Ground track
Ground track

The orbit data is extracted from the following two-line orbital elements,

1 39444U 13066AE  19340.59650997 +.00000230 +00000-0 +34509-4 0  9997
2 39444 097.5578 346.5852 0057879 185.2975 174.7634 14.82022197324651
Epoch (UTC): 06 December 2019 14:18:58
Eccentricity: 0.0057879
inclination: 97.5578°
perigee height: 582 km
apogee height: 663 km
right ascension of ascending node: 346.5852°
argument of perigee: 185.2975°
revolutions per day: 14.82022197
mean anomaly at epoch: 174.7634°
orbit number at epoch: 32465

The dashed part of the orbit path shows where the satellite is in the earth's shadow,  

DLR